Home > Weather > Baltimore > Past weeks

Flag for USA Past Weather in Baltimore, Maryland, USA — Yesterday and Last 2 Weeks

Now
82 °F

Passing clouds.


Feels Like: 82 °F
Forecast: 66 / 84 °F
Wind: 13 mph from East

Location: Baltimore-Washington International Airport

Current Time: Jun 25, 2016 at 5:21:44 PM

Latest Report: Jun 25, 2016 at 4:54 PM


Visibility: 10 mi

Pressure: 30.16 "Hg

Humidity: 43%

Dew Point: 57 °F

Location of BaltimoreLocation

Past Weather in Baltimore — Graph

°F

Baltimore Temperature Yesterday

Maximum temperature yesterday: 79 °F (at 1:54 PM)
Minimum temperature yesterday: 70 °F (at 2:54 AM)
Average temperature yesterday: 74 °F

High & Low Weather Summary for the Past Weeks

 TemperatureHumidityPressure
High95 °F (Jun 11, 3:54 PM)97% (Jun 16, 9:54 PM)30.35 "Hg (Jun 16, 9:54 PM)
Low57 °F (Jun 15, 3:54 AM)14% (Jun 12, 3:54 PM)29.67 "Hg (Jun 16, 5:54 PM)
Average75 °F61%29.96 "Hg
* Reported Jun 10 3:54 PM — Jun 25 3:54 PM, Baltimore, Weather by CustomWeather, © 2016

Note: Actual official high and low records may vary slightly from our data, if they occured in-between our weather recording intervals... More about our weather records

Advertising

Baltimore Weather History for the Previous 24 Hours

Scroll right to see more
 ConditionsComfort  
Time TempWeatherWind HumidityBarometerVisibility
3:54 PM
Sat, Jun 25
81 °FPassing clouds.7 mph44%30.16 "Hg10 mi
2:54 PM81 °FPassing clouds.12 mph44%30.18 "Hg10 mi
1:54 PM81 °FSunny.10 mph45%30.18 "Hg10 mi
12:54 PM80 °FPassing clouds.10 mph47%30.18 "Hg10 mi
11:54 AM78 °FPassing clouds.9 mph58%30.19 "Hg10 mi
10:54 AM76 °FPassing clouds.7 mph62%30.19 "Hg10 mi
9:54 AM74 °FPassing clouds.8 mph69%30.18 "Hg10 mi
8:54 AM72 °FScattered clouds.10 mph73%30.17 "Hg10 mi
7:54 AM71 °FScattered clouds.7 mph76%30.15 "Hg10 mi
6:54 AM70 °FBroken clouds.10 mph81%30.13 "Hg10 mi
5:54 AM70 °FOvercast.5 mph84%30.11 "Hg10 mi
4:54 AM70 °FOvercast.8 mph84%30.10 "Hg10 mi
3:54 AM70 °FOvercast.6 mph81%30.08 "Hg10 mi
2:54 AM71 °FOvercast.8 mph78%30.08 "Hg10 mi
1:54 AM71 °FOvercast.9 mph78%30.08 "Hg10 mi
12:54 AM71 °FOvercast.8 mph78%30.08 "Hg10 mi
11:54 PM
Fri, Jun 24
71 °FMostly cloudy.9 mph78%30.07 "Hg10 mi
10:54 PM71 °FMostly cloudy.10 mph84%30.07 "Hg10 mi
9:54 PM72 °FMostly cloudy.13 mph81%30.06 "Hg10 mi
8:54 PM73 °FMostly cloudy.12 mph84%30.03 "Hg8 mi
7:54 PM72 °FPartly sunny.10 mph87%30.02 "Hg10 mi
6:54 PM74 °FLight rain. Partly sunny.13 mph85%30.01 "Hg7 mi
5:54 PM76 °FPartly sunny.16 mph77%30.00 "Hg10 mi
Weather by CustomWeather, © 2016

See weather overviewHow to use our weather pages